Terminal Aerodrome Forecast
Issued by NWS

Home | Current Version | Previous Version | Graphics & Text | Print | Product List | Glossary On
Versions: 1 2 3 4 5 6 7 8 9 10 11 12 13 14 15 16 17 18 19 20 21
000
FTUS43 KOAX 030538
TAFCDR
TAF
KCDR 030538Z 0306/0406 01010KT 1SM -SN BKN006 OVC012
     FM030900 36017G25KT 1/2SM SN OVC010
     FM031700 35015G25KT 5SM BR SCT010 BKN030=

USA.gov is the U.S. government's official web portal to all federal, state and local government web resources and services.